TJS-24

Last updated on Mon Sep 07 2026 00:03:03 GMT+0000 (Coordinated Universal Time)

1 69235U 26116A 26249.79973036 -.00000249 00000+0 00000+0 0 9992 2 69235 0.2130 89.3809 0001456 162.4693 112.2792 1.00271059 1041
UTC large
Height (km)
Speed (km/s)
/
Latitude / Longitude
Inclination (degrees)
Orbital Period (minutes)
Azimuth
Elevation
Range (km)
Doppler Factor

Next 0 passes for location: London (51.5072 / 0.1276)

No passes found over London.
TJS-24